Flag for U.S.A. Weather past 2 weeks in McAllen, Texas, U.S.A.

Now
78 °F

Clear.


Feels Like: 81 °F
Forecast: 78 / 95 °F
Wind: 5 mph from Southeast

Location: Miller International Airport

Current Time: Sep 3, 2015 at 6:07:27 AM

Latest Report: Sep 3, 2015 at 4:53 AM


Visibility: 8 mi

Pressure: 29.88 "Hg

Humidity: 90%

Dew point: 75 °F

Location of McAllenLocation

Historic Weather in McAllen — Graph

°F

McAllen temperature yesterday

Maximum temperature yesterday: 96 °F (at 3:53 PM)
Minimum temperature yesterday: 79 °F (at 12:53 AM)
Average temperature yesterday: 86 °F

Past Weeks' High & Low Weather Summary

 TemperatureHumidityPressure
High105 °F (Aug 19, 3:53 PM)90% (Sep 3, 4:53 AM)30.09 "Hg (Sep 3, 4:53 AM)
Low72 °F (Aug 28, 6:53 AM)28% (Aug 27, 4:53 PM)29.66 "Hg (Aug 19, 5:53 PM)
Average86 °F68%29.94 "Hg
* Reported Aug 19 4:53 AM — Sep 3 4:53 AM, McAllen, Weather by CustomWeather, © 2015

Note: Actual official high and low records may vary slightly from our data, if they occured in-between our weather recording intervals... More about our weather records

Advertising

McAllen weather history for previous 24 hours

 ConditionsComfort  
Time TempWeatherWind HumidityBarometerVisibility
4:53 AM
Thu, Sep 3
78 °FClear.5 mph90%29.88 "Hg8 mi
3:53 AM80 °FClear.6 mph87%29.88 "Hg10 mi
2:53 AM79 °FClear.5 mph88%29.90 "Hg10 mi
1:53 AM81 °FPassing clouds.6 mph85%29.91 "Hg10 mi
12:53 AM81 °FPassing clouds.6 mph85%29.92 "Hg10 mi
11:53 PM
Wed, Sep 2
81 °FPassing clouds.7 mph82%29.93 "Hg10 mi
10:53 PM84 °FClear.9 mph74%29.92 "Hg10 mi
9:53 PM85 °FClear.10 mph72%29.90 "Hg10 mi
8:53 PM86 °FClear.12 mph65%29.88 "Hg10 mi
7:53 PM87 °FSunny.9 mph65%29.86 "Hg10 mi
6:53 PM90 °FScattered clouds.15 mph59%29.85 "Hg10 mi
5:53 PM94 °FPassing clouds.12 mph49%29.85 "Hg10 mi
4:53 PM94 °FPassing clouds.10 mph52%29.86 "Hg10 mi
3:53 PM96 °FBroken clouds.16 mph47%29.87 "Hg10 mi
2:53 PM94 °FScattered clouds.6 mph51%29.90 "Hg10 mi
1:53 PM93 °FPartly sunny.7 mph52%29.93 "Hg10 mi
12:53 PM92 °FBroken clouds.8 mph56%29.96 "Hg10 mi
11:53 AM91 °FScattered clouds.9 mph61%29.98 "Hg10 mi
10:53 AM89 °FScattered clouds.6 mph65%29.98 "Hg10 mi
9:53 AM87 °FPassing clouds.6 mph72%29.98 "Hg10 mi
8:53 AM84 °FPartly sunny.6 mph80%29.98 "Hg10 mi
7:53 AM81 °FClear.5 mph85%29.97 "Hg10 mi
6:53 AM80 °FClear.7 mph85%29.96 "Hg10 mi
Weather by CustomWeather, © 2015

See weather overviewHow to use our weather pages